Regional Weather Roundup
Issued by NWS Northern Indiana

Home | Current Version | Previous Version | Graphics & Text | Print | Product List | Glossary On
Versions: 1 2 3 4 5 6 7 8 9 10 11 12 13 14 15 16 17 18 19 20 21 22 23 24 25 26 27 28 29 30 31 32 33 34 35 36 37 38 39 40 41 42 43 44 45 46 47 48 49 50
000
ASUS43 KIWX 280600
RWRIWX

KIWX WEATHER ROUNDUP
NATIONAL WEATHER SERVICE NORTHERN INDIANA
200 AM EDT WED JUN 28 2017

NOTE: "FAIR" INDICATES FEW OR NO CLOUDS BELOW 12,000 FEET WITH NO
SIGNIFICANT WEATHER AND/OR OBSTRUCTIONS TO VISIBILITY.

* THESE STATIONS ARE NOT UNDER NWS QUALITY CONTROL. THEY ALSO MAY NOT
  REPORT WEATHER SUCH AS PRECIPITATION OR FOG.

INZ001>027-280700-
NORTHERN INDIANA

CITY           SKY/WX    TMP DP  RH WIND       PRES   REMARKS
MICHIGAN CITY* CLEAR     59  46  63 S5        30.07S
SOUTH BEND     CLEAR     55  45  68 S3        30.09S
6HR MIN TEMP:  55; 6HR MAX TEMP:  71;

GOSHEN         CLEAR     52  47  83 CALM      30.09S
6HR MIN TEMP:  51; 6HR MAX TEMP:  70; 6HR PCP: TRACE;

MONTICELLO*    CLEAR     61  48  61 S6        30.09S
6HR MIN TEMP:  60; 6HR MAX TEMP:  72;

FORT WAYNE     PTCLDY    57  51  80 CALM      30.11S
6HR MIN TEMP:  56; 6HR MAX TEMP:  70;

PERU/GRISSOM   CLEAR     56  50  80 S7        30.09S
6HR MIN TEMP:  55; 6HR MAX TEMP:  70;


$$
INZ028>050-280700-
CENTRAL INDIANA

CITY           SKY/WX    TMP DP  RH WIND       PRES   REMARKS
LAFAYETTE      CLEAR     54  50  86 CALM      30.09S
6HR MIN TEMP:  53; 6HR MAX TEMP:  71;

KOKOMO*        CLEAR     58  50  75 S7        30.12S
6HR MIN TEMP:  57; 6HR MAX TEMP:  72;

MUNCIE*        CLEAR     60  48  64 S5        30.12S
6HR MIN TEMP:  60; 6HR MAX TEMP:  72;

INDIANAPOLIS   PTCLDY    60  49  66 CALM      30.11S
6HR MIN TEMP:  60; 6HR MAX TEMP:  73;


$$
MIZ043>046-050>051-056>058-064>065-071>073-077>080-280700-
SOUTHWEST LOWER MICHIGAN

CITY           SKY/WX    TMP DP  RH WIND       PRES   REMARKS
BATTLE CREEK   CLEAR     56  46  69 SW3       30.09R
6HR MIN TEMP:  54; 6HR MAX TEMP:  69;

BENTON HARBOR  CLEAR     58  44  60 SE5       30.07S
6HR MIN TEMP:  55; 6HR MAX TEMP:  71;

COLDWATER*     CLEAR     50  48  92 CALM      30.09S
6HR MIN TEMP:  49; 6HR MAX TEMP:  69;

HILLSDALE*     CLEAR     48  45  87 CALM      30.10R
HOLLAND        CLEAR     54  47  77 S7        30.06S
6HR MIN TEMP:  54; 6HR MAX TEMP:  68;

GRAND RAPIDS   CLEAR     53  49  86 S5        30.06S
6HR MIN TEMP:  53; 6HR MAX TEMP:  69;

KALAMAZOO      CLEAR     55  47  74 CALM      30.08S
6HR MIN TEMP:  54; 6HR MAX TEMP:  70; 6HR PCP: TRACE;

STURGIS*       CLEAR     52  47  82 CALM      30.09R
6HR MIN TEMP:  52; 6HR MAX TEMP:  68;

THREE RIVERS*  FAIR      51  48  88 CALM      30.09S
6HR MIN TEMP:  51; 6HR MAX TEMP:  69;


$$
OHZ001>008-015>018-024>025-280700-
NORTHWEST OHIO

CITY           SKY/WX    TMP DP  RH WIND       PRES   REMARKS
DEFIANCE       CLEAR     51  48  89 CALM      30.10S
6HR MIN TEMP:  50; 6HR MAX TEMP:  70;

FINDLAY        CLEAR     58  48  69 CALM      30.10S
6HR MIN TEMP:  55; 6HR MAX TEMP:  69;

TOLEDO EXPRESS CLEAR     52  49  89 CALM      30.09S
6HR MIN TEMP:  51; 6HR MAX TEMP:  70;

TOLEDO METCALF CLEAR     55  51  86 CALM      30.10R
6HR MIN TEMP:  55; 6HR MAX TEMP:  72;

LIMA           CLEAR     58  48  69 S7        30.12S
6HR MIN TEMP:  57; 6HR MAX TEMP:  69;


$$
AND FOR LAKE MICHIGAN COASTAL AND OPEN LAKE BUOY OBSERVATIONS

STATION/POSITION TEMP    WIND        PRES    VSBY  WAVE
                 AIR SEA DIR/SP/G                  HT/PER
                 (F)     (DEG/KT/KT) (MB)    (MI)  (FT/S)
CALUMET HARBOR    66     170/  9/ 12 1017.2S
MICHIGAN CITY     64     160/  9/ 13   N/A
BURNS HARBOR      63     180/  8/ 11 1018.3S
SOUTH LAKE BUOY   64 61  150/ 10/ 12 1017.1          1/ 3
4 MI NW BRIDGMAN  67 69  180/ 14/ 19 1018.1R         1/ 2
MICHIGAN CITY     64 66  180/ 12/ 14   N/A           1

$$
&&




USA.gov is the U.S. government's official web portal to all federal, state and local government web resources and services.